Location: Fredericksburg
(30.2750°N, 98.8720°W)
Time: 08:33:08
(UTC-06:00)

PCSat - Visible Passes

Search period start: 28 November 2014 00:00
Search period end: 08 December 2014 00:00
Orbit: 785 x 796 km, 67.1° (Epoch: 27 November)

Date Brightness Start Highest point End Pass type
(mag) Time Alt. Az. Time Alt. Az. Time Alt. Az.
28 Nov 12.2 03:58:27 14° ENE 03:58:27 14° ENE 04:00:47 10° E visible
28 Nov 9.5 05:39:15 30° NW 05:41:55 67° WSW 05:47:16 10° SSE visible
28 Nov 10.2 18:29:35 10° S 18:34:29 36° ESE 18:38:03 17° NE visible
28 Nov 11.5 20:13:39 10° WSW 20:17:55 23° WNW 20:18:51 22° NW visible
29 Nov 9.5 05:10:27 63° NNW 05:11:20 85° ENE 05:16:44 10° SSE visible
29 Nov 10.7 17:59:39 10° SSE 18:03:59 25° ESE 18:08:20 10° NE visible
29 Nov 11.0 19:42:22 10° WSW 19:47:10 33° WNW 19:49:52 21° NNW visible
30 Nov 10.3 04:41:41 51° ESE 04:41:41 51° ESE 04:46:02 10° SE visible
30 Nov 11.3 06:22:30 13° W 06:23:32 13° WSW 06:25:57 10° SW visible
30 Nov 10.5 19:11:19 10° SW 19:16:29 46° WNW 19:20:48 15° N visible
01 Dec 11.6 04:12:57 23° ESE 04:12:57 23° ESE 04:15:07 10° SE visible
01 Dec 11.0 05:53:45 19° WSW 05:53:45 19° WSW 05:56:52 10° SSW visible
01 Dec 9.9 18:40:29 10° SSW 18:45:50 67° WNW 18:51:14 10° NNE visible
02 Dec 11.1 05:25:00 21° SSW 05:25:00 21° SSW 05:27:10 10° SSW visible
02 Dec 9.6 18:09:50 10° SSW 18:15:13 86° ESE 18:20:40 10° NNE visible
02 Dec 12.3 19:57:55 10° WNW 19:59:16 11° NW 20:00:38 10° NW visible
03 Dec 11.7 04:56:13 15° S 04:56:13 15° S 04:57:08 10° S visible
03 Dec 12.1 19:25:15 10° W 19:28:25 16° NW 19:31:35 10° NNW visible
04 Dec 11.7 18:53:31 10° WSW 18:57:36 22° WNW 19:01:43 10° N visible
05 Dec 11.3 18:22:10 10° WSW 18:26:51 30° WNW 18:31:35 10° N visible
